User: anonymous   Login
Location: Unspecified
(0.0000°N, 0.0000°E)
Time: 05:43:46
(UTC+00:00)
Language:

ONEWEB-0051 - Orbit

View from above orbital plane
View from above orbital plane
View from above satellite
View from above satellite

Ground track
Ground track

The orbit is defined by the following mean orbital elements,

1 45155U          26145.42552800 +.00000000 +00000-0 +13336-2 0 00005
2 45155  87.8910  25.5956 0001827  81.8970 278.2365 13.11414922    09
Epoch (UTC): 25 May 2026 10:12:45
Eccentricity: 0.0001827
inclination: 87.8910°
perigee height: 1216 km
apogee height: 1219 km
right ascension of ascending node: 25.5956°
argument of perigee: 81.8970°
revolutions per day: 13.11414922
mean anomaly at epoch: 278.2365°

The dashed part of the orbit path shows where the satellite is in the earth's shadow,  

DLR